[[{"header":{"parameterUnit":"m.s-1","parameterCategory":1,"la1":30.2991,"la2":30.254,"lo1":-89.0895,"lo2":-89.0444,"dy":0.0017,"dx":0.0017,"nx":28,"ny":28,"refTime":"2024-06-11T09:00:00:Z","depth":0,"parameterNumber":2,"parameterNumberName":"U-component_of_WINDS"},"data":[0,0,0,0,0,0,0,0,0,0,0,0,0,0,0,0,0,0,0,0,0,0,0,0,0,0,0,0,0,0,0,0,0,0,0,0,0,0,0,0,0,0,0,0,0,0,0,0,0,0,0,0,0,0,0,0,0,0,-1.232,-1.2319,0,-1.2251,-1.225,-1.225,-1.2152,-1.2151,-1.2149,-1.2147,-1.2079,-1.2078,-1.2078,0,0,0,0,0,0,0,0,0,0,0,0,0,-1.237,-1.2369,-1.232,-1.2319,-1.2318,-1.2251,-1.225,-1.2249,-1.2153,-1.2151,-1.2149,-1.2147,-1.2079,-1.2078,-1.2078,0,0,0,0,0,0,0,0,0,0,0,0,0,-1.2329,-1.2369,-1.232,-1.2262,-1.2256,-1.2251,-1.225,-1.2249,-1.2153,-1.2151,-1.2148,-1.2146,-1.2079,-1.2078,-1.2078,-1.2126,0,0,-1.2077,-1.2077,0,0,0,0,0,0,0,0,-1.2332,-1.2328,-1.2271,-1.2266,-1.2259,-1.2208,-1.2242,-1.2208,-1.2154,-1.2192,-1.2147,-1.2144,-1.2124,-1.2119,-1.2112,-1.2122,-1.2119,-1.2077,-1.2076,-1.2076,-1.2076,0,0,0,0,0,0,0,-1.2335,-1.233,-1.2293,-1.2271,-1.2263,-1.224,-1.2231,-1.2235,-1.2173,-1.2189,-1.2181,-1.2175,-1.212,-1.2113,-1.211,-1.2118,-1.2077,-1.2076,-1.2076,-1.2076,-1.2166,-1.2168,0,0,0,0,0,0,-1.2346,-1.2333,-1.2295,-1.2291,-1.229,-1.2241,-1.2231,-1.2227,-1.2173,-1.2162,-1.2177,-1.217,-1.2115,-1.211,-1.2107,-1.216,-1.2076,-1.2076,-1.2076,-1.2163,-1.2166,-1.2169,0,0,0,0,0,0,-1.2347,-1.2343,-1.2298,-1.231,-1.2302,-1.2243,-1.2238,-1.2227,-1.2219,-1.2163,-1.2152,-1.2181,-1.2113,-1.2108,-1.2122,-1.2156,-1.2076,-1.2075,-1.216,-1.2164,-1.2168,-1.2267,0,0,0,0,0,0,-1.2349,-1.2344,-1.2361,-1.2311,-1.2302,-1.2314,-1.224,-1.2227,-1.2219,-1.221,-1.2164,-1.2154,-1.211,-1.2123,-1.2121,-1.2154,-1.2075,-1.2156,-1.2162,-1.2166,-1.226,-1.2273,-1.2285,0,0,0,0,0,-1.2351,-1.2392,-1.2363,-1.2359,-1.2322,-1.2316,-1.2311,-1.2258,-1.2222,-1.2239,-1.2203,-1.2156,-1.2153,-1.2125,-1.2123,-1.2156,-1.2154,-1.216,-1.2166,-1.2254,-1.2271,-1.2285,0,0,0,0,0,0,-1.2449,-1.2384,-1.2351,-1.2377,-1.2352,-1.2299,-1.2319,-1.2277,-1.2263,-1.2255,-1.2191,-1.2182,-1.2205,-1.2181,-1.2152,-1.22,-1.2146,-1.2152,-1.2214,-1.2229,-1.2242,-1.2248,-1.2075,0,0,0,0,0,-1.2473,-1.2473,-1.2417,-1.2445,-1.2434,-1.2379,-1.2374,-1.2336,-1.2309,-1.2298,-1.2263,-1.2239,-1.2232,-1.2229,-1.222,-1.2256,-1.2245,-1.2277,-1.229,-1.23,-1.2307,-1.2325,-1.2339,-1.2188,-1.2188,-1.2188,0,0,-1.2523,-1.2488,-1.2492,-1.2464,-1.244,-1.2442,-1.2371,-1.2376,-1.2377,-1.2299,-1.231,-1.2284,-1.2253,-1.2278,-1.2288,-1.226,-1.2346,-1.2308,-1.2317,-1.2317,-1.2333,-1.2347,-1.236,-1.2192,-1.2192,-1.2191,0,0,-1.2617,-1.259,-1.2611,-1.2589,-1.2554,-1.2517,-1.2523,-1.2476,-1.2455,-1.2466,-1.2407,-1.2408,-1.2398,-1.2378,-1.2367,-1.2454,-1.2411,-1.2453,-1.2519,-1.2537,-1.2549,-1.256,-1.2592,-1.2605,-1.2459,-1.2459,-1.2459,0,-1.2684,-1.2684,-1.2627,-1.2636,-1.2625,-1.2554,-1.2576,-1.2557,-1.2522,-1.2517,-1.2486,-1.2472,-1.2446,-1.2467,-1.2488,-1.2481,-1.2486,-1.2458,-1.2552,-1.2562,-1.2571,-1.2601,-1.2613,-1.2465,-1.2464,-1.2463,-1.2463,0,-1.277,-1.2771,-1.2792,-1.276,-1.2751,-1.2767,-1.2712,-1.2711,-1.2674,-1.2641,-1.2653,-1.2619,-1.2603,-1.2604,-1.2568,-1.2621,-1.2604,-1.2564,-1.2509,-1.2592,-1.2619,-1.263,-1.2472,-1.247,-1.2469,-1.2467,0,0,-1.2923,-1.2859,-1.2868,-1.2852,-1.2809,-1.2809,-1.2822,-1.2805,-1.2806,-1.2784,-1.2794,-1.2787,-1.275,-1.2737,-1.2698,-1.2714,-1.2788,-1.2671,-1.267,-1.2696,-1.2845,-1.2878,-1.2892,-1.2758,-1.276,-1.2761,-1.2848,0,-1.3009,-1.3026,-1.2975,-1.3006,-1.3007,-1.2939,-1.295,-1.2926,-1.2895,-1.2892,-1.2858,-1.2856,-1.2805,-1.2797,-1.281,-1.2776,-1.2817,-1.2769,-1.2768,-1.2769,-1.2779,-1.2906,-1.2939,-1.3023,-1.2859,-1.286,-1.2862,0,-1.3112,-1.3095,-1.3126,-1.3082,-1.3081,-1.3091,-1.3073,-1.307,-1.3041,-1.3018,-1.3005,-1.2959,-1.2969,-1.2916,-1.293,-1.2899,-1.2895,-1.2878,-1.288,-1.2879,-1.2821,-1.291,-1.3049,-1.3062,-1.2878,-1.2876,-1.2875,0,-1.3222,-1.3208,-1.3224,-1.3213,-1.3162,-1.3172,-1.3151,-1.3119,-1.3113,-1.3097,-1.3092,-1.3078,-1.307,-1.3061,-1.3013,-1.2978,-1.3034,-1.2976,-1.3016,-1.3017,-1.3032,-1.3032,-1.3173,-1.3027,-1.3027,-1.3027,-1.3026,0,-1.3325,-1.3347,-1.3274,-1.3284,-1.3307,-1.3249,-1.3273,-1.3246,-1.3218,-1.3223,-1.3164,-1.317,-1.3106,-1.3105,-1.3068,-1.3086,-1.3083,-1.3065,-1.3056,-1.3072,-1.3074,-1.307,-1.3063,-1.303,-1.3029,-1.3029,-1.3028,0,-1.3453,-1.3404,-1.3419,-1.3369,-1.3357,-1.3377,-1.3334,-1.3343,-1.3308,-1.3315,-1.3314,-1.326,-1.3257,-1.3208,-1.3193,-1.3168,-1.3202,-1.318,-1.3212,-1.3206,-1.3249,-1.3247,-1.3394,-1.3411,-1.3253,-1.3255,-1.3256,0,-1.3522,-1.3537,-1.3489,-1.3488,-1.347,-1.3469,-1.3462,-1.3405,-1.3401,-1.337,-1.3382,-1.3374,-1.3364,-1.3361,-1.3322,-1.3311,-1.3289,-1.3342,-1.3287,-1.3304,-1.3292,-1.3293,-1.3295,-1.3354,-1.3356,-1.3358,-1.3359,0,-1.365,-1.3626,-1.3618,-1.3603,-1.3597,-1.3582,-1.3563,-1.3566,-1.3503,-1.3501,-1.3497,-1.3489,-1.3475,-1.3467,-1.3449,-1.3429,-1.3385,-1.3376,-1.3385,-1.3403,-1.3421,-1.3414,-1.3245,-1.3373,-1.3372,-1.3371,-1.337,-1.337,-1.3752,-1.3763,-1.3731,-1.3725,-1.3705,-1.369,-1.3695,-1.3662,-1.3657,-1.364,-1.3607,-1.3608,-1.358,-1.3551,-1.3534,-1.3535,-1.3508,-1.3521,-1.3524,-1.3529,-1.3538,-1.342,-1.3531,-1.3531,-1.353,-1.353,-1.3529,0,-1.3879,-1.3855,-1.385,-1.3826,-1.3822,-1.3779,-1.3757,-1.3756,-1.3758,-1.3734,-1.3726,-1.3722,-1.3714,-1.3675,-1.3663,-1.3672,-1.3651,-1.3671,-1.3671,-1.3667,-1.3562,-1.3556,-1.3688,-1.3688,-1.3688,-1.3688,-1.3688,-1.3688,-1.3944,-1.3961,-1.3934,-1.394,-1.3916,-1.3917,-1.3908,-1.3893,-1.3875,-1.3872,-1.3866,-1.384,-1.3811,-1.3797,-1.3789,-1.3777,-1.3777,-1.3804,-1.3786,-1.3689,-1.3674,-1.366,-1.3654,-1.3804,-1.3804,-1.3891,-1.3892,-1.3893]},{"header":{"parameterUnit":"m.s-1","parameterCategory":1,"la1":30.2991,"la2":30.254,"lo1":-89.0895,"lo2":-89.0444,"dy":0.0017,"dx":0.0017,"nx":28,"ny":28,"refTime":"2024-06-11T09:00:00:Z","depth":0,"parameterNumber":3,"parameterNumberName":"V-component_of_WINDS"},"data":[0,0,0,0,0,0,0,0,0,0,0,0,0,0,0,0,0,0,0,0,0,0,0,0,0,0,0,0,0,0,0,0,0,0,0,0,0,0,0,0,0,0,0,0,0,0,0,0,0,0,0,0,0,0,0,0,0,0,0.6475,0.6475,0,0.6447,0.6447,0.6446,0.6394,0.6393,0.6392,0.6391,0.6362,0.6362,0.6362,0,0,0,0,0,0,0,0,0,0,0,0,0,0.6483,0.6483,0.6475,0.6475,0.6475,0.6447,0.6447,0.6446,0.6394,0.6393,0.6392,0.6391,0.6362,0.6362,0.6362,0,0,0,0,0,0,0,0,0,0,0,0,0,0.647,0.6483,0.6475,0.6446,0.6443,0.6447,0.6447,0.6446,0.6395,0.6393,0.6392,0.639,0.6362,0.6362,0.6362,0.6393,0,0,0.6363,0.6363,0,0,0,0,0,0,0,0,0.647,0.6469,0.645,0.6448,0.6444,0.6423,0.6438,0.6428,0.6395,0.6413,0.6391,0.639,0.6383,0.6382,0.638,0.6392,0.6391,0.6363,0.6363,0.6363,0.6363,0,0,0,0,0,0,0,0.6471,0.647,0.6464,0.645,0.6446,0.6433,0.6429,0.6436,0.6407,0.6411,0.6407,0.6405,0.6381,0.638,0.6379,0.639,0.6363,0.6363,0.6363,0.6363,0.6423,0.6424,0,0,0,0,0,0,0.6477,0.6471,0.6465,0.6463,0.6454,0.6434,0.643,0.6431,0.6407,0.6401,0.6406,0.6402,0.638,0.6378,0.6377,0.6409,0.6363,0.6363,0.6363,0.6421,0.6423,0.6425,0,0,0,0,0,0,0.6477,0.6477,0.6466,0.6466,0.6464,0.6435,0.6437,0.6431,0.6429,0.6403,0.6397,0.641,0.6379,0.6377,0.6389,0.6407,0.6363,0.6364,0.642,0.6422,0.6424,0.6474,0,0,0,0,0,0,0.6478,0.6477,0.6489,0.6467,0.6464,0.6479,0.6438,0.6432,0.643,0.6425,0.6404,0.64,0.6377,0.6389,0.6389,0.6407,0.6364,0.6418,0.6421,0.6423,0.6471,0.6478,0.6484,0,0,0,0,0,0.6478,0.6505,0.649,0.649,0.6479,0.648,0.6478,0.6452,0.6432,0.6443,0.6425,0.64,0.6406,0.6391,0.639,0.6408,0.6416,0.642,0.6423,0.6468,0.6476,0.6484,0,0,0,0,0,0,0.6531,0.6502,0.6485,0.6506,0.6496,0.6471,0.6485,0.6463,0.6458,0.6454,0.6422,0.6417,0.6433,0.6422,0.6406,0.6435,0.6407,0.641,0.6441,0.6449,0.6456,0.6456,0.6364,0,0,0,0,0,0.6546,0.655,0.6524,0.6545,0.654,0.6514,0.6513,0.6494,0.6482,0.6478,0.6461,0.645,0.6449,0.6449,0.6447,0.647,0.6463,0.6482,0.6488,0.6494,0.6496,0.6504,0.6511,0.6435,0.6435,0.6435,0,0,0.6575,0.6559,0.6564,0.6555,0.6545,0.6548,0.651,0.6517,0.6518,0.6479,0.6487,0.6475,0.6461,0.6477,0.6484,0.6469,0.6516,0.6498,0.6503,0.6502,0.6508,0.6515,0.6522,0.6438,0.6437,0.6437,0,0,0.6629,0.6619,0.6633,0.6624,0.6608,0.659,0.6594,0.6572,0.6562,0.6571,0.654,0.6542,0.6542,0.6531,0.6526,0.6575,0.655,0.6575,0.6609,0.6617,0.6622,0.6627,0.6641,0.6647,0.6579,0.6579,0.6579,0,0.6666,0.6671,0.6644,0.665,0.6646,0.661,0.6623,0.6616,0.6601,0.6598,0.6582,0.6578,0.6567,0.6579,0.659,0.6589,0.659,0.6576,0.6624,0.6629,0.6633,0.6646,0.6651,0.6581,0.6581,0.6581,0.6581,0,0.6716,0.672,0.6733,0.6718,0.6716,0.6727,0.6699,0.67,0.6681,0.6664,0.6672,0.6657,0.6649,0.6651,0.6633,0.666,0.665,0.663,0.66,0.6643,0.6655,0.666,0.6585,0.6584,0.6584,0.6583,0,0,0.6802,0.6771,0.6776,0.6767,0.6747,0.6749,0.6757,0.6749,0.6749,0.674,0.6744,0.6744,0.6724,0.6718,0.6699,0.6706,0.6741,0.6684,0.6683,0.6692,0.6765,0.6778,0.6785,0.6726,0.6727,0.6728,0.6765,0,0.6848,0.686,0.6835,0.6852,0.6853,0.6818,0.6825,0.6813,0.6797,0.6795,0.6778,0.6777,0.6752,0.6748,0.6754,0.6735,0.6755,0.6733,0.6727,0.6727,0.6728,0.6791,0.6806,0.6842,0.677,0.6771,0.6771,0,0.6904,0.6897,0.6914,0.689,0.689,0.6896,0.6885,0.6885,0.687,0.6857,0.685,0.6827,0.6832,0.6806,0.681,0.6795,0.6792,0.6782,0.6783,0.6779,0.6749,0.6785,0.6853,0.6857,0.6778,0.6778,0.6777,0,0.696,0.6955,0.6963,0.6957,0.6931,0.6936,0.6925,0.6909,0.6905,0.6896,0.6892,0.6884,0.6879,0.6873,0.6847,0.6831,0.6854,0.6826,0.6842,0.6842,0.6845,0.6845,0.691,0.6849,0.6849,0.6849,0.6849,0,0.7013,0.7023,0.6987,0.6992,0.7002,0.6973,0.6984,0.697,0.6955,0.6956,0.6927,0.6928,0.6895,0.6892,0.6873,0.6877,0.6877,0.6865,0.6859,0.6866,0.6867,0.6861,0.6856,0.685,0.685,0.685,0.6849,0,0.7075,0.7052,0.7058,0.7033,0.7026,0.7035,0.7012,0.7015,0.6998,0.6998,0.6997,0.6969,0.6964,0.6939,0.6928,0.6915,0.6925,0.6916,0.693,0.6925,0.6941,0.6938,0.7002,0.7007,0.6946,0.6946,0.6947,0,0.7109,0.7116,0.7091,0.7089,0.7079,0.7077,0.7072,0.7044,0.704,0.7023,0.7027,0.702,0.7011,0.7005,0.6983,0.6974,0.6962,0.6985,0.696,0.6966,0.6958,0.6957,0.6956,0.6989,0.699,0.6991,0.6991,0,0.717,0.7157,0.7152,0.7142,0.7137,0.7128,0.7117,0.7117,0.7085,0.7082,0.7076,0.707,0.7058,0.705,0.7037,0.7025,0.7002,0.6999,0.7002,0.7007,0.7013,0.7007,0.694,0.6997,0.6997,0.6996,0.6996,0.6996,0.7216,0.7219,0.7202,0.7196,0.7185,0.7175,0.7175,0.7157,0.7152,0.7139,0.7123,0.7119,0.7102,0.7082,0.7071,0.7067,0.7054,0.7058,0.7059,0.706,0.7062,0.7017,0.7065,0.7064,0.7064,0.7064,0.7064,0,0.7272,0.7259,0.7254,0.7238,0.7234,0.7213,0.72,0.7196,0.7193,0.7179,0.7171,0.7163,0.7155,0.7133,0.7122,0.7122,0.7111,0.712,0.7118,0.7115,0.7075,0.7073,0.7128,0.7128,0.7128,0.7128,0.7128,0.7128,0.73,0.7304,0.7289,0.7286,0.7273,0.7268,0.7261,0.7251,0.724,0.7232,0.7225,0.721,0.7192,0.7179,0.717,0.7164,0.716,0.7171,0.7161,0.7124,0.7118,0.7112,0.7109,0.7172,0.7172,0.72,0.7201,0.7201]}]]